Regional Weather Roundup
Issued by NWS

Home | Current Version | Previous Version | Graphics & Text | Print | Product List | Glossary On
Versions: 1 2 3 4 5 6 7 8 9 10 11 12 13 14 15 16 17 18 19 20 21 22 23 24 25 26 27 28 29 30 31 32 33 34 35 36 37 38 39 40 41 42 43 44 45 46 47 48 49 50
000
ASUS43 KFSD 241410
RWRSD

WEATHER ROUNDUP FOR SOUTH DAKOTA
NATIONAL WEATHER SERVICE SIOUX FALLS SD
900 AM CDT THU JUL 24 2014

NOTE: "FAIR" INDICATES FEW OR NO CLOUDS BELOW 12,000 FEET WITH NO
SIGNIFICANT WEATHER AND/OR OBSTRUCTIONS TO VISIBILITY.


SDZ001>005-009-010-012>017-241500-
NORTHWEST AND NORTH CENTRAL SOUTH DAKOTA

CITY           SKY/WX    TMP DP  RH WIND       PRES   REMARKS
BUFFALO          N/A     70  62  76 SE8       29.76F
FAITH            N/A     69  61  75 E16       29.84R
MOBRIDGE       PTSUNNY   71  61  70 SE16G24   29.88S
$$

SDZ012>016-024>037-041>051-057-063-072>074-241500-
SOUTHWEST AND SOUTH CENTRAL SOUTH DAKOTA

CITY           SKY/WX    TMP DP  RH WIND       PRES   REMARKS
RAPID CTY ARPT PTSUNNY   70  66  87 SE9       29.85F
PIERRE         PTSUNNY   71  60  68 SE26G32   29.87F
CUSTER         PTSUNNY   72  49  44 W8        30.04F
ELLSWORTH AFB  PTSUNNY   71  66  83 S9        29.85F
PHILIP         MOSUNNY   74  63  68 SE9       29.82F
PINE RIDGE     SUNNY     74  66  76 SW14G23   29.92R
WINNER         FAIR      74  61  63 SE18G26   29.94F
$$

SDZ004>011-016>023-039-040-241500-
NORTHEAST SOUTH DAKOTA

CITY           SKY/WX    TMP DP  RH WIND       PRES   REMARKS
ABERDEEN       MOSUNNY   68  58  70 SE15      30.00F
WATERTOWN      MOSUNNY   70  56  61 SE14      30.06F
SISSETON         N/A     68  59  73 S13       30.06F
$$

SDZ017-020-022-023-036>040-048>070-241500-
SOUTHEAST SOUTH DAKOTA

CITY           SKY/WX    TMP DP  RH WIND       PRES   REMARKS
SIOUX FALLS    CLOUDY    66  61  84 S22G39    30.00F
HURON          CLOUDY    68  62  81 SE10      29.99F
MITCHELL       CLOUDY    68  63  84 S16G26    30.01F
YANKTON        CLOUDY    64  61  88 SE9       30.14F
$$

ABBREVIATIONS USED IN REMARKS
   TC - TEMPERATURE IN CELSIUS
  WCI - WIND CHILL INDEX
   HX - HEAT INDEX
  VSB - VISIBILITY




USA.gov is the U.S. government's official web portal to all federal, state and local government web resources and services.